Total_Precipitation_Accumulation
0.01 0.02 0.02 0.05 0.17 0.35 0.46 0.39 0.35 0.45 0.47 0.41 0.45 0.46 0.51 0.65 1.16 2.08 1.24 0.65 0.47 0.44 0.46 0.35 0.40 0.47 0.55 0.62 0.68 0.74 0.72 0.72 0.70 0.70 0.74 0.87 0.95 1.06 1.06 1.10 1.57 1.77 1.90 1.96 2.02 2.18 2.28 2.21 2.34
0.02 0.03 0.04 0.09 0.25 0.51 0.52 0.40 0.43 0.46 0.52 0.50 0.51 0.52 0.55 0.60 0.54 0.58 0.63 0.59 0.44 0.39 0.42 0.32 0.40 0.52 0.57 0.62 0.67 0.79 0.76 0.75 0.73 0.71 0.76 0.87 0.97 1.09 1.18 1.30 1.57 1.89 2.07 2.22 2.42 2.59 2.55 2.34 2.34
0.03 0.03 0.07 0.14 0.22 0.39 0.50 0.47 0.49 0.47 0.46 0.58 0.69 0.77 0.80 0.74 0.66 0.63 0.57 0.45 0.38 0.31 0.33 0.41 0.50 0.57 0.63 0.64 0.65 0.72 0.79 0.83 0.83 0.86 0.86 0.93 1.00 1.03 1.09 1.30 1.48 1.66 1.82 2.00 2.23 2.41 2.57 2.36 2.30
0.04 0.05 0.10 0.15 0.20 0.26 0.42 0.52 0.53 0.56 0.52 0.50 0.61 0.99 0.92 0.70 0.70 0.72 0.54 0.44 0.42 0.36 0.31 0.41 0.56 0.60 0.66 0.71 0.70 0.70 0.75 0.88 1.01 1.10 1.05 1.04 1.10 1.14 1.17 1.33 1.44 1.55 1.57 1.66 1.89 2.22 2.52 2.52 2.36
0.04 0.08 0.17 0.20 0.19 0.23 0.34 0.48 0.51 0.54 0.61 0.59 0.68 1.09 1.05 0.86 0.83 0.94 0.82 0.62 0.59 0.57 0.54 0.50 0.59 0.63 0.69 0.77 0.78 0.82 0.82 0.93 1.09 1.18 1.21 1.21 1.19 1.15 1.28 1.45 1.46 1.48 1.51 1.59 1.66 1.84 2.06 2.44 2.49
0.05 0.09 0.23 0.21 0.17 0.27 0.37 0.49 0.50 0.54 0.62 0.73 0.91 1.30 1.55 1.39 1.25 1.33 1.32 0.95 0.81 0.73 0.70 0.71 0.69 0.65 0.73 0.84 0.84 0.89 0.96 1.02 1.15 1.26 1.37 1.33 1.23 1.21 1.34 1.57 1.60 1.63 1.69 1.72 1.61 1.65 1.86 2.19 2.42
0.05 0.12 0.22 0.17 0.19 0.32 0.42 0.55 0.56 0.64 0.85 0.94 1.10 1.62 1.81 1.72 1.64 1.49 1.58 1.34 1.00 0.96 0.95 0.96 0.82 0.79 0.87 1.00 0.98 0.98 1.01 1.08 1.21 1.43 1.55 1.50 1.40 1.42 1.50 1.61 1.69 1.78 1.84 1.91 1.87 1.84 1.95 2.09 2.35
0.06 0.14 0.17 0.18 0.21 0.36 0.50 0.60 0.62 0.71 0.98 1.11 1.19 1.70 1.97 1.86 1.60 1.52 1.61 1.65 1.41 1.33 1.32 1.25 1.26 1.23 1.13 1.17 1.31 1.26 1.22 1.22 1.23 1.36 1.60 1.65 1.58 1.56 1.63 1.59 1.75 1.90 2.04 2.16 2.28 2.41 2.41 2.37 2.34
0.05 0.15 0.16 0.13 0.18 0.37 0.52 0.65 0.72 0.75 0.96 1.15 1.08 1.26 1.69 1.50 1.64 1.93 1.84 1.92 1.87 1.77 1.71 1.50 1.56 1.59 1.44 1.39 1.36 1.52 1.50 1.44 1.39 1.45 1.64 1.74 1.86 1.89 1.89 1.81 2.10 2.22 2.46 2.65 2.77 2.81 2.64 2.54 2.41
0.04 0.13 0.13 0.10 0.14 0.30 0.48 0.66 0.80 0.88 0.94 1.16 1.21 1.18 1.43 1.56 1.63 1.92 2.29 2.13 2.13 1.96 1.88 1.80 1.66 1.59 1.57 1.48 1.58 1.78 1.72 1.73 1.63 1.84 1.85 2.01 2.47 2.66 2.35 2.60 2.74 2.84 2.97 3.04 2.95 2.93 2.74 2.43 2.10
0.05 0.09 0.11 0.12 0.18 0.31 0.48 0.61 0.65 0.81 1.00 1.12 1.31 1.37 1.48 1.73 1.99 2.03 2.45 2.44 2.40 2.30 2.11 2.15 2.01 1.85 2.03 2.14 2.03 2.04 2.12 2.26 2.15 2.30 2.38 2.57 2.82 2.90 2.92 3.10 3.10 3.23 3.33 3.24 3.20 3.06 2.70 2.34 2.14
0.05 0.07 0.10 0.16 0.20 0.29 0.41 0.51 0.68 0.88 1.28 1.32 1.62 1.94 1.99 1.92 2.23 2.28 2.60 2.62 2.76 2.92 2.73 2.61 2.60 2.47 2.59 2.84 2.63 2.34 2.26 2.37 2.45 2.71 2.65 2.99 3.18 3.22 3.26 3.35 3.36 3.40 3.45 3.44 3.22 3.15 2.96 2.72 2.42
0.06 0.08 0.09 0.15 0.25 0.33 0.43 0.56 0.76 1.01 1.19 1.29 1.70 2.13 2.25 2.10 2.02 2.25 2.92 2.78 2.84 3.12 3.27 3.03 2.99 2.93 3.10 3.29 3.15 2.89 2.85 2.64 2.62 2.97 3.06 3.22 3.39 3.41 3.54 3.54 3.57 3.35 3.31 3.25 3.15 3.03 3.15 3.04 2.77
0.08 0.09 0.12 0.13 0.21 0.31 0.45 0.57 0.75 0.96 0.90 1.04 1.38 1.72 1.91 2.07 2.10 2.28 2.67 2.81 2.78 3.04 3.35 3.47 3.47 3.39 3.18 3.27 3.34 3.12 2.86 2.98 2.87 2.91 3.09 3.16 3.39 3.70 3.80 3.77 3.77 3.67 3.53 3.57 3.40 3.21 3.43 3.35 3.22
0.06 0.10 0.15 0.16 0.20 0.32 0.42 0.64 0.86 1.09 1.04 1.14 1.33 1.48 1.78 2.03 2.35 2.60 2.74 2.78 2.79 2.93 3.16 3.36 3.47 3.63 3.43 3.41 3.46 3.28 3.10 3.11 3.19 3.26 3.44 3.35 3.35 3.72 3.92 4.07 3.98 3.99 3.87 3.83 3.78 3.76 3.87 3.59 3.42
0.09 0.13 0.23 0.26 0.23 0.26 0.42 0.82 1.08 1.13 1.19 1.25 1.31 1.45 1.65 1.99 2.28 2.44 2.42 2.49 2.49 2.56 2.88 3.19 3.33 3.52 3.72 3.78 3.92 3.66 3.68 3.74 3.73 3.57 3.53 3.45 3.46 3.70 4.09 4.21 4.20 4.31 4.21 4.29 4.37 4.28 4.19 4.12 3.86
0.14 0.18 0.25 0.34 0.28 0.25 0.45 0.90 1.12 1.08 1.23 1.31 1.31 1.35 1.49 1.76 1.99 2.14 2.21 2.28 2.30 2.33 2.85 3.20 3.52 3.89 4.11 4.31 4.54 4.48 4.57 4.46 4.27 4.19 4.04 4.07 4.20 4.25 4.46 4.55 4.62 4.68 4.74 4.80 4.58 4.78 4.59 4.54 4.38
0.22 0.22 0.26 0.28 0.28 0.29 0.47 0.76 0.95 1.06 1.22 1.35 1.35 1.35 1.39 1.66 1.90 2.02 2.20 2.39 2.33 2.44 2.88 3.30 3.62 4.23 4.73 4.82 5.00 5.09 5.34 5.29 5.14 5.18 5.06 4.77 4.88 4.97 5.16 5.08 5.14 5.19 5.28 5.18 5.16 5.32 5.11 4.82 4.79
0.20 0.25 0.32 0.28 0.26 0.34 0.45 0.66 0.90 1.05 1.26 1.46 1.45 1.46 1.58 1.71 1.97 2.15 2.29 2.50 2.81 3.07 3.28 3.54 3.80 4.19 4.49 4.92 5.28 5.46 5.65 5.86 5.94 5.92 5.91 5.88 5.82 5.97 6.07 5.78 5.88 5.79 5.67 5.46 5.44 5.40 5.19 4.93 4.91
0.15 0.21 0.30 0.32 0.32 0.34 0.50 0.70 0.93 1.04 1.19 1.43 1.49 1.57 1.63 1.75 1.93 2.26 2.63 3.04 3.30 3.51 3.61 3.88 4.23 4.54 4.72 5.12 5.65 6.16 6.40 6.48 6.50 6.53 6.69 6.70 6.68 6.86 6.92 6.93 6.69 6.51 6.29 5.80 5.45 5.35 5.14 4.77 4.87
0.12 0.17 0.21 0.29 0.36 0.42 0.61 1.04 1.26 1.28 1.40 1.53 1.55 1.70 1.73 1.82 2.10 2.40 2.89 3.26 3.37 3.50 3.64 3.85 4.40 4.90 5.36 5.80 6.38 6.88 7.24 7.25 7.10 6.78 6.90 7.04 6.84 6.89 7.18 7.29 7.06 6.72 6.15 5.59 5.49 5.46 5.29 5.04 4.93
0.13 0.15 0.17 0.24 0.39 0.56 0.62 1.30 1.69 1.78 1.77 1.66 1.67 1.80 1.79 1.82 2.07 2.43 2.73 3.04 3.22 3.36 3.67 3.97 4.41 5.09 5.63 5.92 6.56 7.26 7.50 7.75 7.79 7.60 7.32 7.13 6.86 6.68 6.64 6.60 6.26 5.90 5.53 5.26 5.13 5.23 5.13 5.10 4.87
0.12 0.12 0.18 0.23 0.31 0.51 0.56 1.07 1.84 1.99 2.12 1.92 1.86 1.90 1.76 1.72 1.88 2.25 2.49 2.81 3.24 3.36 3.48 3.71 4.28 4.92 5.66 6.31 6.83 7.45 7.91 8.18 8.11 7.70 7.22 6.70 6.36 5.89 5.45 5.18 5.03 4.99 4.83 4.64 4.54 4.65 4.58 4.32 4.19
0.11 0.16 0.27 0.33 0.44 0.72 0.67 1.02 1.95 2.25 2.42 2.50 2.17 1.93 1.75 1.70 1.78 1.95 2.25 2.56 2.90 2.97 3.21 3.51 3.97 4.69 5.41 6.01 6.61 7.15 7.55 7.68 7.39 6.86 6.33 5.95 5.58 5.04 4.50 4.28 4.19 4.12 3.95 3.77 3.67 3.71 3.74 3.77 3.82
0.14 0.32 0.67 0.88 0.99 0.96 0.73 1.07 1.92 2.13 1.97 2.07 2.13 2.15 1.93 1.72 1.80 2.03 2.25 2.56 2.72 2.78 3.03 3.40 3.96 4.59 4.99 5.45 5.96 6.31 6.52 6.66 6.64 6.36 5.90 5.52 5.00 4.52 4.06 3.66 3.52 3.29 3.14 3.09 3.16 3.16 3.12 3.23 3.34
0.16 0.33 0.86 1.16 1.14 1.12 1.09 1.58 2.25 2.08 1.73 1.74 1.88 2.03 1.85 1.77 1.96 2.29 2.38 2.56 2.74 2.77 2.97 3.35 3.83 4.22 4.41 4.60 5.00 5.34 5.50 5.55 5.43 5.29 4.90 4.59 4.21 3.90 3.66 3.25 2.92 2.69 2.55 2.48 2.70 2.75 2.75 2.83 2.94
0.21 0.28 0.45 0.68 0.75 1.13 1.61 2.15 2.76 2.58 2.01 1.81 1.86 1.89 1.92 1.90 2.01 2.30 2.44 2.55 2.67 2.71 2.89 3.09 3.38 3.56 3.74 3.89 4.10 4.33 4.38 4.30 4.17 4.01 3.76 3.56 3.37 3.02 2.90 2.70 2.54 2.42 2.36 2.38 2.49 2.47 2.54 2.70 2.77
0.21 0.32 0.46 0.76 1.12 1.51 1.84 2.60 3.44 3.30 2.61 2.13 2.01 1.95 1.96 1.93 1.97 2.18 2.28 2.40 2.47 2.47 2.57 2.66 2.88 3.04 3.22 3.31 3.34 3.27 3.32 3.27 3.12 2.93 2.81 2.64 2.46 2.37 2.36 2.30 2.31 2.27 2.21 2.28 2.38 2.27 2.31 2.45 2.43
0.29 0.38 0.57 0.76 0.86 1.47 2.16 3.09 3.28 3.33 3.00 2.58 2.15 1.91 1.88 1.88 1.87 1.96 2.06 2.08 2.10 2.11 2.18 2.34 2.52 2.71 2.81 2.83 2.90 2.85 2.74 2.55 2.44 2.30 2.19 2.12 2.06 2.06 2.04 2.06 2.10 2.14 2.14 2.20 2.18 2.01 2.04 2.10 2.27
0.29 0.41 0.62 0.99 1.04 1.22 1.89 3.11 3.11 3.33 3.23 2.89 2.48 2.17 2.04 1.97 1.85 1.76 1.78 1.80 1.84 1.93 2.04 2.18 2.22 2.32 2.38 2.48 2.55 2.59 2.53 2.36 2.16 2.05 1.96 1.95 1.95 1.93 1.95 1.95 1.92 1.96 2.11 2.22 2.15 1.98 1.93 2.05 2.20